Philip, SD

4:11 PM MDT on April 26, 2018 (GMT -0600)
Philip

Weather History for KPHP - February, 2014

Change the Weather History Date:

Saturday, February 22, 2014

  Actual Average Record
Temperature  
Mean Temperature 23 °F 27 °F  
Max Temperature 27 °F 40 °F 69 °F (2002)
Min Temperature 18 °F 14 °F -22 °F (1957)
Degree Days  
Heating Degree Days 42 38  
Month to date heating degree days 1012 880  
Since 1 July heating degree days 5280 5145  
Cooling Degree Days 0 0  
Month to date cooling degree days 0 0  
Year to date cooling degree days 0 0  
Moisture  
Dew Point 17 °F    
Average Humidity 75    
Maximum Humidity 88    
Minimum Humidity 62    
Precipitation  
Precipitation T in 0.03 in 0.11 in (2018)
Month to date precipitation 0.21 0.31  
Year to date precipitation 0.32 0.61  
Sea Level Pressure  
Sea Level Pressure 30.09 in    
Wind  
Wind Speed 6 mph (North)    
Max Wind Speed 16 mph    
Max Gust Speed 21 mph    
Visibility 10 miles    
Events Snow    
T = Trace of Precipitation, MM = Missing Value Source: NWS Daily Summary

Daily Weather History Graph

Daily Weather History Graph

Search for Another Location

Airport or City:

Astronomy

Feb. 22, 2014 Rise Set
Actual Time 6:34 AM MST 5:25 PM MST
Civil Twilight 6:05 AM MST 5:54 PM MST
Nautical Twilight 5:32 AM MST 6:28 PM MST
Astronomical Twilight 4:58 AM MST 7:01 PM MST
Moon 12:37 AM MST (2/22) 10:32 AM MST (2/22)
Length of Visible Light 11h 49m
Length of Day
10h 50m
Waning Gibbous, 49% of the Moon is Illuminated
Feb 22
Waning Gibbous
Mar 1
New
Mar 8
First Quarter
Mar 16
Full
Mar 23
Last Quarter

Hourly Weather History & Observations

Time (MST) Temp. Windchill Dew Point Humidity Pressure Visibility Wind Dir Wind Speed Gust Speed Precip Events Conditions
12:47 AM 21.2 °F - 17.6 °F 86% 29.91 in 10.0 mi Calm Calm - N/A   Mostly Cloudy
12:55 AM 21.0 °F 14.6 °F 18.0 °F 88% 29.97 in 10.0 mi WSW 4.6 mph - N/A   Mostly Cloudy
1:47 AM 23.0 °F - 19.4 °F 86% 29.91 in 8.0 mi Calm Calm - N/A   Overcast
1:55 AM 23.0 °F - 19.9 °F 88% 29.96 in 7.0 mi Calm Calm - N/A   Overcast
2:41 AM 24.8 °F - 21.2 °F 86% 29.92 in 9.0 mi Calm Calm - N/A   Overcast
2:55 AM 24.1 °F 19.7 °F 21.0 °F 88% 29.98 in 10.0 mi SE 3.5 mph - N/A   Overcast
3:55 AM 24.1 °F 18.2 °F 21.0 °F 88% 29.99 in 8.0 mi East 4.6 mph - N/A   Overcast
4:22 AM 24.8 °F 17.9 °F 19.4 °F 80% 29.95 in 10.0 mi East 5.8 mph - N/A   Overcast
4:37 AM 24.8 °F 19.1 °F 19.4 °F 80% 29.95 in 10.0 mi East 4.6 mph - N/A   Overcast
4:55 AM 24.1 °F 18.2 °F 18.0 °F 77% 30.03 in 10.0 mi NE 4.6 mph - N/A   Overcast
5:55 AM 23.0 °F 18.4 °F 18.0 °F 81% 30.04 in 10.0 mi NNE 3.5 mph - N/A   Overcast
6:55 AM 21.9 °F 17.2 °F 17.1 °F 82% 30.07 in 9.0 mi ENE 3.5 mph - 0.00 in   Overcast
7:43 AM 23.0 °F 18.4 °F 15.8 °F 74% 30.01 in 10.0 mi North 3.5 mph - N/A   Overcast
7:55 AM 23.0 °F 17.0 °F 17.1 °F 78% 30.09 in 10.0 mi North 4.6 mph - N/A   Mostly Cloudy
8:55 AM 25.0 °F 18.1 °F 16.0 °F 69% 30.11 in 10.0 mi NNW 5.8 mph - N/A   Clear
9:55 AM 26.1 °F 19.4 °F 17.1 °F 69% 30.10 in 10.0 mi North 5.8 mph - N/A   Partly Cloudy
10:55 AM 27.0 °F 18.0 °F 17.1 °F 66% 30.11 in 10.0 mi North 9.2 mph - N/A   Overcast
11:55 AM 26.1 °F 15.0 °F 15.1 °F 63% 30.13 in 10.0 mi NNW 12.7 mph 18.4 mph N/A   Overcast
12:55 PM 26.1 °F 14.5 °F 16.0 °F 66% 30.13 in 10.0 mi NNW 13.8 mph - N/A   Overcast
1:17 PM 26.6 °F 16.2 °F 15.8 °F 64% 30.05 in 8.0 mi North 11.5 mph - 0.00 in   Overcast
1:55 PM 27.0 °F 15.6 °F 15.1 °F 61% 30.12 in 10.0 mi North 13.8 mph - 0.00 in   Mostly Cloudy
2:04 PM 26.6 °F 15.2 °F 15.8 °F 64% 30.05 in 10.0 mi North 13.8 mph - N/A   Mostly Cloudy
2:13 PM 26.6 °F 15.2 °F 14.0 °F 59% 30.05 in 10.0 mi NNW 13.8 mph - N/A   Mostly Cloudy
2:24 PM 26.6 °F 16.2 °F 14.0 °F 59% 30.06 in 10.0 mi North 11.5 mph - N/A   Mostly Cloudy
2:55 PM 25.0 °F 13.6 °F 14.0 °F 63% 30.14 in 10.0 mi NNW 12.7 mph - N/A   Overcast
3:55 PM 24.1 °F 14.4 °F 14.0 °F 65% 30.16 in 10.0 mi North 9.2 mph - N/A   Overcast
4:55 PM 23.0 °F 12.4 °F 15.1 °F 72% 30.18 in 5.0 mi NNW 10.4 mph - 0.00 in Snow Light Snow
5:55 PM 21.9 °F 14.5 °F 15.1 °F 75% 30.21 in 10.0 mi NNW 5.8 mph - 0.00 in   Overcast
6:55 PM 21.0 °F 14.6 °F 16.0 °F 81% 30.23 in 10.0 mi NNW 4.6 mph - N/A   Mostly Cloudy
7:55 PM 21.0 °F 14.6 °F 16.0 °F 81% 30.25 in 10.0 mi WNW 4.6 mph - N/A   Overcast
8:55 PM 19.9 °F 13.4 °F 16.0 °F 85% 30.26 in 10.0 mi NNW 4.6 mph - N/A   Overcast
9:55 PM 19.9 °F 13.4 °F 16.0 °F 85% 30.28 in 10.0 mi NW 4.6 mph - N/A   Mostly Cloudy
10:55 PM 19.0 °F - 15.1 °F 85% 30.29 in 10.0 mi Calm Calm - N/A   Mostly Cloudy
11:55 PM 19.0 °F 12.3 °F 14.0 °F 81% 30.29 in 10.0 mi NNW 4.6 mph - N/A   Mostly Cloudy